ƒz[ƒ€ƒy[ƒW‚ÖƒWƒƒƒ“ƒv


OAAœa¯‰Û•ñƒ2000”N9ŒŽ13“ú†„


œ P/2000 R1(Shoemaker-Levy 5)‚ÌŠÏ‘ªƒf[ƒ^‚Æ‹O“¹—v‘f

Œ|¼‚Ì‘SŠÏ‘ª
2000U.T          ƒ¿i2000j @ƒÂ@@@@    m1
July  1.77014  2h39m53s71  +13‹04Œ563  18.5
      4.77361  2 46 05.89  +13  45  40. 8
      5.77013  2 48 09.55  +13  59  04. 2
     11.76597  3 00 33.24  +15  18  41. 1  18.0
Aug.  3.76771  3 47 49.92  +20  03  48. 1  18.0
      3.78889  3 47 52.34  +20  04  02. 3
     10.77205  4 01 55.38  +21  23  52. 7  17.5
Sept. 4.73299  4 49 16.25  +25  45  47. 9
      4.74653  4 49 17.52  +25  45  57. 2  17.5
      5.78646  4 51 06.98  +25  56  12. 9
      7.77188  4 54 33.57  +26  15  45. 6  17.0
      7.78194  4 54 34.55  +26  15  47. 6
 

ŽŸ‚Í‘º‰ªŒ’ޡނªŒvŽZ‚µ‚½‹O“¹‚Å‚·B
Comet P/1991 T1=P/2000 R1(Shoemaker-Levy 5)

The following improved orbital elements by Kenji Muraoka,are from 47 observations 1991 Sept.12 to 2000 Sept. 7, perturbations by 9 Planets,Moon and 5 minor Planets were taken into account.
The mean residual is +/- 0.89 arc seconds.

Epoch = 2000 Aug. 4.0 TT    JDT=2451760.5
T     = 2000 Aug.17.08500   +/- 0.00226(m.e.)TT
Peri. = 6.23324             +/- 0.00100
Node  = 29.69027            +/- 0.00016 (2000.0)
Incl. = 11.77060            +/- 0.00009
   q  = 1.9886190           +/- 0.0000060 AU
   e  = 0.5293611           +/- 0.0000014
   a  = 4.2253600           +/- 0.0000043 AU
   n  = 0.11347717          +/- 0.00000017
   P  = 8.686               +/- 0.0000131 years

Seki



Copyright (C) 2000 Tsutomu Seki.@iŠÖ•×j